Location: ??
(35.4627°N, 139.3695°E)
Time: 15:32:46
(UTC+00:00)

Atlas Centaur 2 - Pass Details

Date: 25 November 2020
Orbit: 459 x 1309 km, 30.4° (Epoch: 21 January)

Event Time Altitude Azimuth Distance (km) Brightness Sun altitude
Exits shadow 18:22:00 21° 148° (SSE) 1,944 4.3 -37.6°
Drops below altitude 10° 18:25:25 10° 112° (ESE) 2,412 5.2 -36.9°
Sets 18:28:14 0° 96° (E) 3,188 6.2 -36.3°
